Address 0x4600f1ba62ffc703947bd917c057f7b366b9d4f9 4

Txn Hash Method
Block
From
To
Value [Txn Fee]
0xeb8b49bc393e80df08d9b79ab94d4ea419ec812e26978553ca56970ab79ed16bSwap Exact Token...167549932022-07-01 11:09:046 mins ago0x4600f1ba62ffc703947bd917c057f7b366b9d4f9OUT 0x9e4aabd2b3e60ee1322e94307d0776f2c8e6cfbb0 AVAX0.0031339165 26.5
0xe14a3d2bdae9b95421c3a9f36a9ff53bd796a377171ec899036553cb797302b2Swap Exact Token...167549902022-07-01 11:08:586 mins ago0x4600f1ba62ffc703947bd917c057f7b366b9d4f9OUT YetiSwap: Router0 AVAX0.003185088 26.5
0x043e49f126673134aad5b920191d3332d56a884544b2d77b5c38230650aeb1f4Swap Exact Token...167549832022-07-01 11:08:447 mins ago0x4600f1ba62ffc703947bd917c057f7b366b9d4f9OUT Pangolin: Router0 AVAX0.003538227 26.5
0x1cfe74766ebb8f7a32d8ed9b56dcd3541d9c3b31ec6790509b576e7fc110fbb1Swap Exact Token...167549792022-07-01 11:08:367 mins ago0x4600f1ba62ffc703947bd917c057f7b366b9d4f9OUT Trader Joe: Router0 AVAX0.003433128 26.5
0xc100a3e7a01409d6a9fd9e20ff2eb13ed552da7be1cded015254666950c7d62bSwap Exact Token...167530082022-07-01 10:02:571 hr 12 mins ago0x4600f1ba62ffc703947bd917c057f7b366b9d4f9OUT 0x9e4aabd2b3e60ee1322e94307d0776f2c8e6cfbb0 AVAX0.0030775245 26.5
0xd7e79a970e4b1afcb77b281994b00ce4d0b106ce594c72f6979c7f5e8bdc1e61Swap Exact Token...167530042022-07-01 10:02:491 hr 12 mins ago0x4600f1ba62ffc703947bd917c057f7b366b9d4f9OUT YetiSwap: Router0 AVAX0.003185088 26.5
0x985c9c4ba0e14f92538e9fb782b304eeb245cd0d0179b9308614d49c404da96bSwap Exact Token...167530012022-07-01 10:02:431 hr 13 mins ago0x4600f1ba62ffc703947bd917c057f7b366b9d4f9OUT Pangolin: Router0 AVAX0.003538545 26.5
0x582f92be41d5a1883bddd0a2e38d20c9732fce73480267360db9178e7a5fb6f7Swap Exact Token...167529992022-07-01 10:02:391 hr 13 mins ago0x4600f1ba62ffc703947bd917c057f7b366b9d4f9OUT Trader Joe: Router0 AVAX0.003433128 26.5
0x609fb6dc6bedf34d1344075b93a76563be066a4ad652747eee4c430182511b4eSwap Exact Token...167515002022-07-01 9:12:162 hrs 3 mins ago0x4600f1ba62ffc703947bd917c057f7b366b9d4f9OUT 0x9e4aabd2b3e60ee1322e94307d0776f2c8e6cfbb0 AVAX0.0031342345 26.5
0xad785eaf9a48a7178f777bfe26f903de2047a900e2e6b1cca6665a4a97760941Swap Exact Token...167514972022-07-01 9:12:102 hrs 3 mins ago0x4600f1ba62ffc703947bd917c057f7b366b9d4f9OUT YetiSwap: Router0 AVAX0.003185088 26.5
0x6835c4f2532094748bd171b720c11896af4a73d972ec14f7e5fbdbdcce744c68Swap Exact Token...167514942022-07-01 9:12:042 hrs 3 mins ago0x4600f1ba62ffc703947bd917c057f7b366b9d4f9OUT Pangolin: Router0 AVAX0.0034833985 26.5
0x682699a1114979d4101c94c022ccbd69b79ce5c8d0ca9a72228a1ddf3f2ab026Swap Exact Token...167514922022-07-01 9:11:592 hrs 3 mins ago0x4600f1ba62ffc703947bd917c057f7b366b9d4f9OUT Trader Joe: Router0 AVAX0.00660168 26.5
0xc7de54fd0e532a469fa3ea0f2fb5908e241005404e1af6302e3d358c29631f07Swap Exact Token...167495302022-07-01 8:06:193 hrs 9 mins ago0x4600f1ba62ffc703947bd917c057f7b366b9d4f9OUT 0x9e4aabd2b3e60ee1322e94307d0776f2c8e6cfbb0 AVAX0.0030778425 26.5
0x731de689731e8d38cf81a82945b4dc37283abff9912dd0b4fd75e2060ace765aSwap Exact Token...167495222022-07-01 8:06:033 hrs 9 mins ago0x4600f1ba62ffc703947bd917c057f7b366b9d4f9OUT YetiSwap: Router0 AVAX0.003185088 26.5
0x23de8ac7c5f9a13f17026508b22beb91f7a4f0039adffdb794709212cb99c007Swap Exact Token...167495172022-07-01 8:05:533 hrs 9 mins ago0x4600f1ba62ffc703947bd917c057f7b366b9d4f9OUT Pangolin: Router0 AVAX0.0034830805 26.5
0xb3f182f408fbcc8cf2ebc9939c7f878773b6a0e0eb01b34b55387b08c89649eeSwap Exact Token...167495112022-07-01 8:05:393 hrs 10 mins ago0x4600f1ba62ffc703947bd917c057f7b366b9d4f9OUT Trader Joe: Router0 AVAX0.003433446 26.5
0x279c07c5cb58947baeae42bac1037ae4e6b87d9404b6f71ebb5e86601f1d4f1eSwap Exact Token...167478312022-07-01 7:09:454 hrs 5 mins ago0x4600f1ba62ffc703947bd917c057f7b366b9d4f9OUT 0x9e4aabd2b3e60ee1322e94307d0776f2c8e6cfbb0 AVAX0.0030778425 26.5
0xbfe9758c08adbf7db6445acc8068ed798676bf24d6246952a45135e9a08f21cdSwap Exact Token...167478172022-07-01 7:09:164 hrs 6 mins ago0x4600f1ba62ffc703947bd917c057f7b366b9d4f9OUT YetiSwap: Router0 AVAX0.003128696 26.5
0x199eb88cfab81f3f8e5433a2bf6ccd3e74d1e6945ffb51f07fb343649d7a7716Swap Exact Token...167478102022-07-01 7:09:034 hrs 6 mins ago0x4600f1ba62ffc703947bd917c057f7b366b9d4f9OUT Pangolin: Router0 AVAX0.003538545 26.5
0x44a63e39f1700b6171cb03c974cf4349e68b78fc5ce5e73491123e7ccda8bfdcSwap Exact Token...167478052022-07-01 7:08:534 hrs 6 mins ago0x4600f1ba62ffc703947bd917c057f7b366b9d4f9OUT Trader Joe: Router0 AVAX0.003433446 26.5
0x7b31d0e7fa2e1a58640571361c2247e1380631225b2de4260ca5c6daf1d818a8Swap Exact Token...167460042022-07-01 6:08:405 hrs 7 mins ago0x4600f1ba62ffc703947bd917c057f7b366b9d4f9OUT 0x9e4aabd2b3e60ee1322e94307d0776f2c8e6cfbb0 AVAX0.0031345525 26.5
0x0973fcf3b2b23df2284898dbf6d0eaa49cae6f69ecceb76868688f2939207c43Swap Exact Token...167459942022-07-01 6:08:225 hrs 7 mins ago0x4600f1ba62ffc703947bd917c057f7b366b9d4f9OUT YetiSwap: Router0 AVAX0.003185406 26.5
0xcb318340cfd62d9038e4d43572988b46c9c018d9fc24748da882948a5bd1011fSwap Exact Token...167459892022-07-01 6:08:125 hrs 7 mins ago0x4600f1ba62ffc703947bd917c057f7b366b9d4f9OUT Pangolin: Router0 AVAX0.0034833985 26.5
0xaf67bc8444af28ebf9cacb2b92d42aea4470d57c0e052cd0318cbcecb689fab8Swap Exact Token...167459822022-07-01 6:07:585 hrs 7 mins ago0x4600f1ba62ffc703947bd917c057f7b366b9d4f9OUT Trader Joe: Router0 AVAX0.003433764 26.5
0x17eead0bf688ddcd936d32e22a43277ddb1b839d603f66727f48e171591c4b38Swap Exact Token...167443342022-07-01 5:12:456 hrs 2 mins ago0x4600f1ba62ffc703947bd917c057f7b366b9d4f9OUT 0x9e4aabd2b3e60ee1322e94307d0776f2c8e6cfbb0 AVAX0.0031342345 26.5
[ Download CSV Export 
Latest 1 internal transaction
Parent Txn Hash Block From To Value
0x31fefdfc050ad4129267d0530820bf055ce5a15669bb69769873cea5a38677c9124617772022-03-23 5:46:30100 days 5 hrs ago Trader Joe: Router0x4600f1ba62ffc703947bd917c057f7b366b9d4f9659.855115645986265958 AVAX
[ Download CSV Export 
Loading

Contract Name:
0

Compiler Version
0

Optimization Enabled:
0

Other Settings:
-NA-
Block Transaction Gas Used Reward
Age Block Fee Address BC Fee Address Voting Power Jailed Incoming
Block Uncle Number Difficulty Gas Used Reward
Loading
Make sure to use the "Vote Down" button for any spammy posts, and the "Vote Up" for interesting conversations.